Regional Weather Roundup
Issued by NWS Kansas City/Pleasant Hill, MO

Home | Current Version | Previous Version | Graphics & Text | Print | Product List | Glossary Off
Versions: 1 2 3 4 5 6 7 8 9 10 11 12 13 14 15 16 17 18 19 20 21 22 23 24 25 26 27 28

000
ASUS43 KEAX 290310
RWREAX

WEATHER ROUNDUP FOR EASTERN KANSAS AND NORTHWEST MISSOURI
NATIONAL WEATHER SERVICE KANSAS CITY/PLEASANT HILL MO
1000 PM CDT THU JUL 28 2016

KSZ040-057-103>105-MOZ028-029-037-043-290400-
...KANSAS CITY METROPOLITAN AREA...

CITY           SKY/WX    TMP DP  RH WIND       PRES   REMARKS
K.C. INTL      MOCLDY    75  66  73 NW5       30.00R
K.C. DOWNTOWN  CLEAR     82  65  56 N6        29.97R
LEES SUMMIT    CLEAR     78  67  68 N6        29.98R
OLATHE - IXD   PTCLDY    77  69  76 N6        29.99R
OLATHE - OJC   PTCLDY    80  66  62 N5        29.98R
LAWRENCE       CLOUDY    77  69  76 NW5       29.99R

$$

MOZ001>008-011>017-020>025-030>033-038>040-044>046-053-054-290400-
...NORTHERN AND CENTRAL MISSOURI...

CITY           SKY/WX    TMP DP  RH WIND       PRES   REMARKS
ST. JOSEPH     CLOUDY    74  67  78 N5        29.99R
MOSBY          CLEAR     73  66  78 N3        29.98R
WHITEMAN AFB   PTCLDY    77  73  87 CALM      29.95
CLINTON        PTCLDY    77  72  83 CALM      29.96R
SEDALIA        PTCLDY    77  72  84 SE3       29.96R
WARSAW         NOT AVBL
CHILLICOTHE      N/A     75  66  73 CALM      29.98R
KIRKSVILLE     CLEAR     67  64  90 CALM      29.98R

$$

MOZ041-047>049-056>058-063>065-088>090-097-290400-
...EASTERN AND SOUTHERN MISSOURI...

CITY           SKY/WX    TMP DP  RH WIND       PRES   REMARKS
ST. LOUIS INTL MOCLDY    81  71  71 N7        29.92R
SPIRIT OF STL  CLOUDY    79  74  84 CALM      29.90R
COLUMBIA       CLEAR     73  71  93 CALM      29.95R
JEFFERSON CITY CLEAR     73  70  90 CALM      29.94R
ROLLA          CLOUDY    71  69  93 CALM      29.95R
OSAGE BEACH    PTCLDY    74  73  97 CALM      29.96R
SPRINGFIELD    PTCLDY    76  70  82 CALM      29.95R
BRANSON        CLEAR     75  72  88 CALM      29.97R
JOPLIN         PTCLDY    76  72  87 NW3       29.97R
WEST PLAINS    MOCLDY    71  67  87 CALM      29.99R

$$

IAZ060-094-KSZ022-034>040-054-083-096-NEZ052-066-093-290400-
...KANSAS...SOUTHEAST NEBRASKA AND IOWA...

CITY           SKY/WX    TMP DP  RH WIND       PRES   REMARKS
TOPEKA         LGT RAIN  70  65  84 W7        30.02R
MANHATTAN      LGT RAIN  70  67  90 E14       29.91F
EMPORIA        LGT RAIN  68  66  93 E8        30.03F
CHANUTE        CLEAR     79  75  87 NW5       29.99R
WICHITA        CLOUDY    70  68  93 N5        30.02F
OMAHA          CLOUDY    75  62  64 NE7       30.01R
LINCOLN        CLOUDY    73  64  73 N6        30.03R
FALLS CITY     MOCLDY    76  69  79 E3        29.98R
LAMONI         CLEAR     68  64  87 NW5       29.99R
DES MOINES     PTCLDY    73  63  70 N7        29.97R

$$





USA.gov is the U.S. government's official web portal to all federal, state and local government web resources and services.